Weather History for Soldotna, AK

Change the Weather History Date:

Thursday, November 8, 2012

  Actual Average Record
Temperature  
Mean Temperature 14 °F -  
Max Temperature 24 °F 32 °F 48 °F (1983)
Min Temperature 5 °F 17 °F -10 °F (1953)
Degree Days  
Heating Degree Days 50    
Moisture  
Dew Point 11 °F    
Average Humidity 79    
Maximum Humidity 92    
Minimum Humidity 63    
Precipitation  
Precipitation 0.00 in - - ()
Sea Level Pressure  
Sea Level Pressure 30.28 in    
Wind  
Wind Speed 4 mph (East)    
Max Wind Speed 8 mph    
Max Gust Speed -    
Visibility 10 miles    
Events      
Averages and records for this station are not official NWS values.
T = Trace of Precipitation, MM = Missing Value Source: NWS Daily Summary

Daily Weather History Graph

Daily Weather History Graph

Search for Another Location

Airport:

Trip Planner

Search our weather history database for the weather conditions in past years. The results will help you decide how hot, cold, wet, or windy it might be!

Date:

Astronomy

Nov. 08, 2012 Rise Set
Actual Time 8:48 AM AKST 4:46 PM AKST
Civil Twilight 8:00 AM AKST 5:34 PM AKST
Nautical Twilight 7:09 AM AKST 6:25 PM AKST
Astronomical Twilight 6:19 AM AKST 7:14 PM AKST
Moon 1:26 AM AKST (11/8) 2:50 PM AKST (11/8)
Length of Visible Light 9h 33m
Length of Day
7h 57m
Waning Crescent, 31% of the Moon is Illuminated
Nov 8
Waning Crescent
Nov 13
New
Nov 20
First Quarter
Nov 28
Full
Dec 6
Last Quarter

Hourly Weather History & Observations

Time (AKST) Temp. Windchill Dew Point Humidity Pressure Visibility Wind Dir Wind Speed Gust Speed Precip Events Conditions
12:16 AM 5.0 °F -4.1 °F 1.4 °F 85% 30.37 in 10.0 mi East 4.6 mph - N/A   Clear
12:36 AM 5.0 °F -4.1 °F 1.4 °F 85% 30.37 in 10.0 mi East 4.6 mph - N/A   Clear
12:56 AM 5.0 °F -6.9 °F 1.4 °F 85% 30.37 in 10.0 mi East 6.9 mph - N/A   Clear
1:16 AM 5.0 °F -4.1 °F 1.4 °F 85% 30.37 in 10.0 mi East 4.6 mph - N/A   Clear
1:36 AM 5.0 °F -4.1 °F 1.4 °F 85% 30.37 in 10.0 mi ENE 4.6 mph - N/A   Clear
1:56 AM 5.0 °F -4.1 °F 1.4 °F 85% 30.36 in 10.0 mi ENE 4.6 mph - N/A   Clear
2:16 AM 5.0 °F -4.1 °F 1.4 °F 85% 30.36 in 10.0 mi East 4.6 mph - N/A   Clear
2:36 AM 5.0 °F -4.1 °F 1.4 °F 85% 30.37 in 10.0 mi ENE 4.6 mph - N/A   Clear
2:56 AM 5.0 °F -4.1 °F 1.4 °F 85% 30.36 in 10.0 mi ENE 4.6 mph - N/A   Clear
3:16 AM 5.0 °F -4.1 °F 1.4 °F 85% 30.36 in 10.0 mi East 4.6 mph - N/A   Clear
3:36 AM 6.8 °F -2.0 °F 3.2 °F 85% 30.36 in 10.0 mi ENE 4.6 mph - N/A   Clear
3:56 AM 6.8 °F -3.5 °F 3.2 °F 85% 30.36 in 10.0 mi East 5.8 mph - N/A   Clear
4:16 AM 6.8 °F -3.5 °F 3.2 °F 85% 30.36 in 10.0 mi East 5.8 mph - N/A   Clear
4:36 AM 6.8 °F -2.0 °F 3.2 °F 85% 30.35 in 10.0 mi East 4.6 mph - N/A   Clear
4:56 AM 6.8 °F -2.0 °F 3.2 °F 85% 30.35 in 10.0 mi East 4.6 mph - N/A   Clear
5:16 AM 8.6 °F 2.0 °F 5.0 °F 85% 30.34 in 10.0 mi East 3.5 mph - N/A   Clear
5:36 AM 8.6 °F -1.3 °F 5.0 °F 85% 30.34 in 10.0 mi East 5.8 mph - N/A   Scattered Clouds
5:56 AM 8.6 °F 2.0 °F 5.0 °F 85% 30.34 in 10.0 mi East 3.5 mph - N/A   Mostly Cloudy
6:16 AM 8.6 °F - 6.8 °F 92% 30.33 in 10.0 mi Calm Calm - N/A   Overcast
6:36 AM 10.4 °F - 6.8 °F 85% 30.33 in 10.0 mi Calm Calm - N/A   Overcast
6:56 AM 10.4 °F - 6.8 °F 85% 30.33 in 10.0 mi Calm Calm - N/A   Overcast
7:16 AM 10.4 °F 4.0 °F 8.6 °F 92% 30.33 in 10.0 mi ENE 3.5 mph - N/A   Overcast
7:36 AM 10.4 °F 4.0 °F 8.6 °F 92% 30.32 in 10.0 mi East 3.5 mph - N/A   Overcast
7:56 AM 12.2 °F 6.1 °F 8.6 °F 85% 30.32 in 10.0 mi ESE 3.5 mph - N/A   Overcast
8:16 AM 12.2 °F 6.1 °F 8.6 °F 85% 30.32 in 10.0 mi East 3.5 mph - N/A   Overcast
8:36 AM 12.2 °F 4.3 °F 10.4 °F 92% 30.32 in 10.0 mi East 4.6 mph - N/A   Overcast
8:56 AM 12.2 °F 4.3 °F 10.4 °F 92% 30.32 in 10.0 mi East 4.6 mph - N/A   Overcast
9:16 AM 14.0 °F 8.2 °F 10.4 °F 86% 30.32 in 10.0 mi ESE 3.5 mph - N/A   Overcast
9:36 AM 15.8 °F 6.1 °F 12.2 °F 86% 30.32 in 9.0 mi SE 6.9 mph - N/A   Overcast
9:56 AM 15.8 °F 6.1 °F 12.2 °F 86% 30.32 in 10.0 mi East 6.9 mph - N/A   Overcast
10:16 AM 15.8 °F 7.2 °F 10.4 °F 79% 30.32 in 10.0 mi East 5.8 mph - N/A   Overcast
10:36 AM 15.8 °F 7.2 °F 10.4 °F 79% 30.31 in 10.0 mi ESE 5.8 mph - N/A   Overcast
10:56 AM 15.8 °F 8.6 °F 10.4 °F 79% 30.32 in 10.0 mi East 4.6 mph - N/A   Overcast
11:16 AM 17.6 °F 12.3 °F 12.2 °F 79% 30.32 in 8.0 mi ESE 3.5 mph - N/A   Overcast
11:36 AM 17.6 °F 12.3 °F 12.2 °F 79% 30.31 in 10.0 mi East 3.5 mph - N/A   Overcast
11:56 AM 17.6 °F - 12.2 °F 79% 30.31 in 10.0 mi Calm Calm - N/A   Overcast
12:16 PM 19.4 °F - 12.2 °F 74% 30.30 in 10.0 mi Calm Calm - N/A   Overcast
12:36 PM 19.4 °F 14.3 °F 12.2 °F 74% 30.30 in 10.0 mi NNE 3.5 mph - N/A   Overcast
12:56 PM 21.2 °F 12.6 °F 12.2 °F 68% 30.29 in 10.0 mi NE 6.9 mph - N/A   Overcast
1:16 PM 21.2 °F 12.6 °F 12.2 °F 68% 30.29 in 10.0 mi ENE 6.9 mph - N/A   Overcast
1:36 PM 21.2 °F 13.6 °F 12.2 °F 68% 30.29 in 10.0 mi ENE 5.8 mph - N/A   Overcast
1:56 PM 21.2 °F 14.9 °F 15.8 °F 80% 30.28 in 5.0 mi ENE 4.6 mph - N/A   Overcast
2:16 PM 21.2 °F 14.9 °F 15.8 °F 80% 30.28 in 10.0 mi ENE 4.6 mph - N/A   Overcast
2:36 PM 21.2 °F 13.6 °F 15.8 °F 80% 30.28 in 10.0 mi ENE 5.8 mph - N/A   Overcast
2:56 PM 23.0 °F 14.7 °F 14.0 °F 68% 30.27 in 10.0 mi ENE 6.9 mph - N/A   Overcast
3:16 PM 23.0 °F 15.8 °F 15.8 °F 74% 30.27 in 10.0 mi ENE 5.8 mph - N/A   Overcast
3:36 PM 23.0 °F 17.0 °F 14.0 °F 68% 30.26 in 10.0 mi ENE 4.6 mph - N/A   Overcast
3:56 PM 23.0 °F 14.7 °F 14.0 °F 68% 30.25 in 10.0 mi ENE 6.9 mph - N/A   Overcast
4:16 PM 23.0 °F 14.7 °F 15.8 °F 74% 30.24 in 10.0 mi ENE 6.9 mph - N/A   Overcast
4:36 PM 23.0 °F 17.0 °F 15.8 °F 74% 30.25 in 10.0 mi ENE 4.6 mph - N/A   Overcast
4:56 PM 23.0 °F 17.0 °F 12.2 °F 63% 30.25 in 10.0 mi ENE 4.6 mph - N/A   Overcast
5:16 PM 23.0 °F 13.9 °F 15.8 °F 74% 30.24 in 10.0 mi NE 8.1 mph - N/A   Overcast
5:36 PM 23.0 °F 14.7 °F 15.8 °F 74% 30.24 in 10.0 mi ENE 6.9 mph - N/A   Overcast
5:56 PM 23.0 °F 14.7 °F 15.8 °F 74% 30.23 in 10.0 mi ENE 6.9 mph - N/A   Overcast
6:16 PM 23.0 °F 18.4 °F 15.8 °F 74% 30.23 in 10.0 mi ENE 3.5 mph - N/A   Overcast
6:36 PM 23.0 °F 17.0 °F 15.8 °F 74% 30.22 in 10.0 mi ENE 4.6 mph - N/A   Overcast
6:56 PM 23.0 °F 17.0 °F 15.8 °F 74% 30.21 in 10.0 mi ENE 4.6 mph - N/A   Overcast
7:16 PM 23.0 °F 17.0 °F 15.8 °F 74% 30.21 in 10.0 mi ENE 4.6 mph - N/A   Overcast
7:36 PM 23.0 °F 18.4 °F 14.0 °F 68% 30.21 in 10.0 mi East 3.5 mph - N/A   Overcast
7:56 PM 23.0 °F 18.4 °F 14.0 °F 68% 30.20 in 10.0 mi ENE 3.5 mph - N/A   Overcast
8:16 PM 23.0 °F 15.8 °F 15.8 °F 74% 30.20 in 10.0 mi ENE 5.8 mph - N/A   Overcast
8:36 PM 24.8 °F 19.1 °F 14.0 °F 64% 30.19 in 10.0 mi East 4.6 mph - N/A   Overcast
8:56 PM 24.8 °F 20.5 °F 14.0 °F 64% 30.19 in 10.0 mi East 3.5 mph - N/A   Overcast
9:16 PM 23.0 °F 18.4 °F 15.8 °F 74% 30.18 in 10.0 mi East 3.5 mph - N/A   Overcast
9:36 PM 23.0 °F 15.8 °F 17.6 °F 80% 30.17 in 10.0 mi East 5.8 mph - N/A   Overcast
9:56 PM 23.0 °F 17.0 °F 15.8 °F 74% 30.17 in 10.0 mi East 4.6 mph - N/A   Overcast
10:16 PM 23.0 °F 18.4 °F 15.8 °F 74% 30.16 in 10.0 mi ESE 3.5 mph - N/A   Overcast
10:36 PM 23.0 °F 18.4 °F 15.8 °F 74% 30.16 in 10.0 mi East 3.5 mph - N/A   Overcast
10:56 PM 24.8 °F - 17.6 °F 74% 30.16 in 10.0 mi Calm Calm - N/A   Overcast
11:16 PM 24.8 °F - 17.6 °F 74% 30.16 in - Calm Calm - N/A   Overcast
11:36 PM 24.8 °F - 19.4 °F 80% 30.15 in - Calm Calm - N/A   Overcast
11:56 PM 24.8 °F - 19.4 °F 80% 30.15 in - Calm Calm - N/A   Overcast